Regional Weather Roundup
Issued by NWS Midland/Odessa, TX

Skip options and go directly to product.
Home | Oldest Version | Previous Version | Current Version | All | Text Only | Save Text | Print | Product List | Glossary On

Skip product version selection by date and time.   
284
ASUS44 KMAF 261310
RWRMAF
MIDLAND AREA WEATHER ROUNDUP
NATIONAL WEATHER SERVICE MIDLAND TX
800 AM CDT TUE MAY 26 2015

...IN SOUTHWEST TEXAS AND SOUTHEAST NEW MEXICO...

CITY           SKY/WX    TMP DP  RH WIND       PRES   REMARKS
ALPINE         SUNNY     58  32  38 SW3       30.15R
ANDREWS        FAIR      63  47  57 W7        30.02R
ARTESIA        SUNNY     57  39  51 CALM      30.04R
BIG SPRING     MOSUNNY   64  60  86 S5        30.02R
CARLSBAD       SUNNY     59  47  64 N3        30.02R
DRYDEN           N/A     71  67  87 VRB5      29.97R
FORT STOCKTON  SUNNY     62  35  36 SW8       30.01R
GUAD PASS      SUNNY     58  31  35 S7        30.14R
HOBBS          SUNNY     55  48  76 CALM      30.04R
MARFA          SUNNY     50  36  57 NW3       30.13R
MIDLAND AIRPK  SUNNY     67  58  74 W6        30.01R
MIDLAND INTL   SUNNY     65  59  81 W7        30.00R
ODESSA         SUNNY     64  54  69 CALM      30.01R
PECOS          SUNNY     55  46  70 SW3       30.00R
PRESIDIO       FAIR      62  22  22 MISG      30.01R
SEMINOLE       SUNNY     56  49  76 W7        30.03R
SNYDER         SUNNY     60  58  93 SW5       29.99R
WINK             N/A     59  44  57 N9        29.98R
$$
...OTHER STATIONS IN TEXAS...

CITY           SKY/WX    TMP DP  RH WIND       PRES   REMARKS
ABILENE        SUNNY     66  58  75 NW5       29.97R
AMARILLO       SUNNY     53  50  89 SE7       29.97R
AUSTIN         CLOUDY    67  67 100 CALM      30.00R
BROWNSVILLE    CLOUDY    81  76  84 SE8       29.94R
CORPUS CHRISTI CLOUDY    80  76  87 SE20G25   29.93R
DALLAS FTW     CLOUDY    62  62 100 S10       29.96R
DEL RIO        CLOUDY    77  74  90 SE7       29.93R FOG
EL PASO        MOSUNNY   60  38  43 E3        30.06R
HOUSTON INT    CLOUDY    70  68  93 CALM      30.01R
LUBBOCK        MOSUNNY   59  55  87 W8        29.97R
SAN ANGELO     CLOUDY    71  68  90 S15G25    29.97R
SAN ANTONIO    CLOUDY    73  69  87 E7        30.00R
WACO           CLOUDY    66  65  96 S13       29.98R
WICHITA FALLS  NOT AVBL
$$
...OTHER LOCATIONS IN NEW MEXICO...

CITY           SKY/WX    TMP DP  RH WIND       PRES   REMARKS
ALAMAGORDO     SUNNY     59  37  44 NE7       30.08R
ALBUQUERQUE    MOSUNNY   49  45  86 SE3       30.15R
CANNON AFB     NOT AVBL
CLOVIS         SUNNY     54  46  76 NW10      30.01R
HOLLOMAN AFB   NOT AVBL
ROSWELL        SUNNY     56  45  66 S3        30.02R
RUIDOSO        SUNNY     50  36  57 W9        30.19R
SANTA FE       SUNNY     46  41  82 N8        30.14R
TRUTH OR CONSE SUNNY     57  39  51 W6        30.10R
TUCUMCARI      SUNNY     56  51  84 W3        30.00R
$$

USA.gov is the U.S. government's official web portal to all federal, state and local government web resources and services.